Location: Baia Mare
(47.6567°N, 23.5850°E)
Time: 17:05:09
(UTC+02:00)

ISS - Pass Details

Date: 30 January 2019
Orbit: 406 x 411 km, 51.6° (Epoch: 21 March)

Event Time Altitude Azimuth Distance (km) Brightness Sun altitude
Rises 19:39:08 0° 284° (WNW) 2,349 1.4 -23.0°
Reaches altitude 10° 19:41:19 10° 292° (WNW) 1,488 -0.1 -23.3°
Enters shadow 19:43:25 30° 319° (NW) 773 -2.1 -23.7°
